Location: LDNL
(36.4545°S, 141.6685°E)
Time: 23:14:42
(UTC+10:00)

Envisat - Pass Details

Date: 04 July 2022
Orbit: 763 x 765 km, 98.2° (Epoch: 16 August)

Event Time Altitude Azimuth Distance (km) Brightness Sun altitude
Rises 18:05:24 0° 183° (S) 3,266 6.1 -7.3°
Reaches altitude 10° 18:08:08 10° 197° (SSW) 2,332 5.5 -7.8°
Maximum altitude 18:12:05 23° 247° (WSW) 1,604 5.3 -8.5°
Drops below altitude 10° 18:16:01 10° 298° (WNW) 2,311 7.1 -9.2°
Sets 18:18:44 0° 312° (NW) 3,228 7.7 -9.7°
